EW9290 Weather Reports


Display with metric or nautical units.
time (UTC)temp
F
wind
direction
speed
MPH
gust
MPH
rain 1hr
in
rain 24hr
in
rain mn
in
humidity
%
barometer
mb
20260504050433 49 199 3.0 5.0 0.00 0.00 0.00 69 1009.0
20260504045930 49 179 4.0 5.0 0.00 0.00 0.00 69 1009.2
20260504045426 49 155 4.0 5.0 0.00 0.00 0.00 69 1009.1
20260504044922 49 171 4.0 6.0 0.00 0.00 0.00 70 1009.1
20260504044420 49 222 2.0 2.0 0.00 0.00 0.00 69 1009.1
20260504043917 49 191 3.0 6.0 0.00 0.00 0.00 69 1009.0
20260504043414 49 193 4.0 5.0 0.00 0.00 0.00 69 1009.2
20260504042911 49 202 2.0 3.0 0.00 0.00 0.00 69 1009.3
20260504042408 49 188 3.0 5.0 0.00 0.00 0.00 69 1009.4
20260504041904 50 172 2.0 2.0 0.00 0.00 0.00 68 1009.4
20260504041400 50 195 2.0 2.0 0.00 0.00 0.00 69 1009.4
20260504040856 50 183 3.0 3.0 0.00 0.00 0.00 67 1009.4
20260504040354 50 191 2.0 2.0 0.00 0.00 0.00 67 1009.6
20260504035850 50 188 3.0 3.0 0.00 0.00 0.00 66 1009.6
20260504035348 50 197 3.0 3.0 0.00 0.00 0.00 66 1009.7
20260504034844 50 194 2.0 2.0 0.00 0.00 0.00 66 1009.8
20260504034342 50 194 1.0 1.0 0.00 0.00 0.00 67 1009.7
20260504033838 51 181 1.0 1.0 0.00 0.00 0.00 66 1009.8
20260504033337 51 181 1.0 2.0 0.00 0.00 0.00 65 1009.7
20260504032833 51 189 3.0 3.0 0.00 0.00 0.00 65 1009.7
20260504032330 51 179 4.0 5.0 0.00 0.00 0.00 64 1009.9
20260504031827 51 201 2.0 2.0 0.00 0.00 0.00 64 1009.8
20260504031324 51 201 2.0 2.0 0.00 0.00 0.00 64 1009.9
20260504030820 51 178 3.0 5.0 0.00 0.00 0.00 63 1009.8
20260504030318 51 230 3.0 3.0 0.00 0.00 0.00 63 1010.0
20260504025814 51 203 1.0 2.0 0.00 0.00 0.00 64 1010.0
20260504025311 51 202 2.0 2.0 0.00 0.00 0.00 64 1010.1
20260504024808 51 202 3.0 3.0 0.00 0.00 0.00 64 1009.9
20260504024304 51 194 5.0 6.0 0.00 0.00 0.00 65 1009.9
20260504023801 51 202 2.0 3.0 0.00 0.00 0.00 65 1010.3
20260504023257 50 200 2.0 2.0 0.00 0.00 0.00 65 1010.1
20260504022753 51 208 1.0 1.0 0.00 0.00 0.00 66 1010.3
20260504022250 51 206 1.0 2.0 0.00 0.00 0.00 65 1010.2
20260504021747 51 232 4.0 6.0 0.00 0.00 0.00 66 1010.2
20260504021244 51 211 2.0 2.0 0.00 0.00 0.00 65 1010.2
20260504020741 51 216 3.0 3.0 0.00 0.00 0.00 65 1010.3
20260504020237 51 258 6.0 9.0 0.00 0.00 0.00 65 1010.2
20260504015733 51 228 2.0 2.0 0.00 0.00 0.00 65 1010.3
20260504015230 51 242 2.0 2.0 0.00 0.00 0.00 64 1010.5
20260504014726 51 237 6.0 7.0 0.00 0.00 0.00 64 1010.5
20260504014223 51 237 5.0 7.0 0.00 0.00 0.00 62 1010.7
20260504013721 51 257 7.0 10.0 0.00 0.00 0.00 62 1010.3
20260504013218 52 277 3.0 3.0 0.00 0.00 0.00 60 1010.4
20260504012714 52 244 7.0 8.0 0.00 0.00 0.00 57 1010.1
20260504012212 53 237 3.0 3.0 0.00 0.00 0.00 54 1010.1
20260504011709 53 258 4.0 5.0 0.00 0.00 0.00 52 1010.0
20260504011206 52 222 7.0 14.0 0.00 0.00 0.00 53 1009.7
20260504010702 53 209 0.0 0.0 0.00 0.00 0.00 53 1009.7
20260504010157 53 209 1.0 1.0 0.00 0.00 0.00 52 1009.6
20260504005654 53 214 1.0 1.0 0.00 0.00 0.00 52 1009.7
20260504005151 53 208 1.0 1.0 0.00 0.00 0.00 51 1009.6
20260504004649 54 214 1.0 1.0 0.00 0.00 0.00 50 1009.5
20260504004146 54 222 2.0 2.0 0.00 0.00 0.00 50 1009.4
20260504003642 54 218 1.0 2.0 0.00 0.00 0.00 50 1009.6
20260504003139 55 247 2.0 2.0 0.00 0.00 0.00 50 1009.5
20260504002636 55 233 3.0 3.0 0.00 0.00 0.00 48 1009.7
20260504002134 55 226 2.0 2.0 0.00 0.00 0.00 48 1009.6
20260504001631 55 241 4.0 5.0 0.00 0.00 0.00 48 1009.5
20260504001127 55 251 3.0 3.0 0.00 0.00 0.00 48 1009.4
20260504000625 56 260 3.0 3.0 0.00 0.00 0.00 46 1009.5
20260504000122 56 227 4.0 6.0 0.00 0.00 0.00 46 1009.4
20260503235620 56 219 4.0 5.0 0.00 0.00 0.00 46 1009.6
20260503235116 57 233 2.0 2.0 0.00 0.00 0.00 45 1009.6
20260503234614 57 236 10.0 11.0 0.00 0.00 0.00 44 1009.5
20260503234112 57 237 6.0 9.0 0.00 0.00 0.00 45 1009.6
20260503233609 57 285 4.0 5.0 0.00 0.00 0.00 45 1009.7
20260503233104 57 284 4.0 6.0 0.00 0.00 0.00 45 1009.8
20260503232602 57 243 5.0 6.0 0.00 0.00 0.00 45 1009.7
20260503232059 57 296 4.0 5.0 0.00 0.00 0.00 44 1009.6
20260503231557 57 248 4.0 6.0 0.00 0.00 0.00 44 1009.6
20260503231053 57 252 5.0 7.0 0.00 0.00 0.00 43 1009.7
20260503230550 58 232 6.0 7.0 0.00 0.00 0.00 43 1009.6
20260503230047 57 255 9.0 13.0 0.00 0.00 0.00 43 1009.6
20260503225544 57 237 8.0 11.0 0.00 0.00 0.00 44 1009.7
20260503225039 57 242 3.0 3.0 0.00 0.00 0.00 45 1009.7
20260503224537 57 226 9.0 13.0 0.00 0.00 0.00 44 1009.8
20260503224034 57 226 5.0 6.0 0.00 0.00 0.00 46 1009.7
20260503223532 57 214 4.0 6.0 0.00 0.00 0.00 45 1009.9
20260503223027 58 221 6.0 7.0 0.00 0.00 0.00 44 1010.0
20260503222526 57 240 4.0 5.0 0.00 0.00 0.00 45 1010.0
20260503222024 57 255 5.0 6.0 0.00 0.00 0.00 45 1009.9
20260503221522 57 224 9.0 13.0 0.00 0.00 0.00 44 1010.1
20260503221019 57 172 4.0 7.0 0.00 0.00 0.00 44 1010.1
20260503220515 58 239 4.0 5.0 0.00 0.00 0.00 45 1010.1
20260503220012 58 240 8.0 11.0 0.00 0.00 0.00 44 1010.0
20260503215509 58 264 5.0 6.0 0.00 0.00 0.00 44 1009.8
20260503215006 59 236 3.0 3.0 0.00 0.00 0.00 46 1009.9
20260503214504 59 232 3.0 3.0 0.00 0.00 0.00 44 1010.1
20260503214000 58 249 5.0 6.0 0.00 0.00 0.00 43 1009.9
20260503213459 59 218 5.0 5.0 0.00 0.00 0.00 43 1010.1
20260503212955 58 225 6.0 7.0 0.00 0.00 0.00 42 1010.1
20260503212453 59 214 6.0 7.0 0.00 0.00 0.00 43 1010.0
20260503211950 58 267 6.0 8.0 0.00 0.00 0.00 42 1010.1
20260503211447 58 247 5.0 8.0 0.00 0.00 0.00 43 1010.1
20260503210942 58 219 11.0 15.0 0.00 0.00 0.00 43 1010.1
20260503210440 59 258 8.0 10.0 0.00 0.00 0.00 43 1009.9
20260503205940 59 234 9.0 10.0 0.00 0.00 0.00 42 1010.1
20260503205437 59 289 11.0 13.0 0.00 0.00 0.00 40 1010.2
20260503204933 58 226 3.0 5.0 0.00 0.00 0.00 43 1010.1
20260503204430 58 249 4.0 5.0 0.00 0.00 0.00 45 1010.2
20260503203927 59 222 5.0 7.0 0.00 0.00 0.00 43 1010.0
20260503203425 58 211 5.0 7.0 0.00 0.00 0.00 42 1010.2
20260503202921 59 237 9.0 10.0 0.00 0.00 0.00 41 1010.3
20260503202420 59 249 3.0 5.0 0.00 0.00 0.00 41 1010.1
20260503201918 60 268 5.0 6.0 0.00 0.00 0.00 41 1010.5
20260503201415 60 254 6.0 13.0 0.00 0.00 0.00 41 1010.5
20260503200912 59 216 1.0 1.0 0.00 0.00 0.00 41 1010.4
20260503200408 58 235 4.0 6.0 0.00 0.00 0.00 42 1010.2
20260503195905 58 232 11.0 14.0 0.00 0.00 0.00 42 1010.4
20260503195402 60 258 7.0 10.0 0.00 0.00 0.00 41 1010.5
20260503194859 59 300 8.0 11.0 0.00 0.00 0.00 41 1010.7
20260503194355 59 228 5.0 7.0 0.00 0.00 0.00 41 1011.1
20260503193851 59 236 5.0 7.0 0.00 0.00 0.00 41 1011.0
20260503193347 59 230 5.0 7.0 0.00 0.00 0.00 42 1011.1
20260503192843 59 236 9.0 10.0 0.00 0.00 0.00 43 1011.1
20260503192339 59 221 7.0 8.0 0.00 0.00 0.00 43 1011.3
20260503191835 58 218 4.0 6.0 0.00 0.00 0.00 45 1011.2
20260503191332 59 263 7.0 13.0 0.00 0.00 0.00 43 1011.3
20260503190829 59 253 5.0 6.0 0.00 0.00 0.00 45 1011.4
20260503190326 57 223 2.0 5.0 0.00 0.00 0.00 44 1011.6
20260503185824 58 264 8.0 10.0 0.00 0.00 0.00 43 1011.8
20260503185319 58 234 6.0 7.0 0.00 0.00 0.00 43 1011.8
20260503184814 58 250 9.0 10.0 0.00 0.00 0.00 42 1011.8
20260503184310 58 261 5.0 7.0 0.00 0.00 0.00 43 1011.6
20260503183806 59 231 3.0 5.0 0.00 0.00 0.00 43 1012.0
20260503183304 58 237 9.0 13.0 0.00 0.00 0.00 38 1012.1
20260503182801 58 233 6.0 7.0 0.00 0.00 0.00 44 1012.0
20260503182300 59 228 5.0 7.0 0.00 0.00 0.00 42 1012.1
20260503181756 56 251 8.0 14.0 0.00 0.00 0.00 44 1011.9
20260503181253 57 217 7.0 8.0 0.00 0.00 0.00 43 1012.2
20260503180749 58 256 6.0 7.0 0.00 0.00 0.00 42 1012.2
20260503180248 58 213 4.0 6.0 0.00 0.00 0.00 43 1012.4
20260503175744 57 240 4.0 5.0 0.00 0.00 0.00 44 1012.3
20260503175242 57 243 12.0 16.0 0.00 0.00 0.00 42 1012.2
20260503174738 58 267 8.0 10.0 0.00 0.00 0.00 45 1012.6
20260503174237 57 224 11.0 14.0 0.00 0.00 0.00 45 1012.4
20260503173736 57 206 5.0 8.0 0.00 0.00 0.00 47 1012.3
20260503173232 56 228 5.0 7.0 0.00 0.00 0.00 48 1012.5
20260503172729 57 282 7.0 9.0 0.00 0.00 0.00 47 1012.5
20260503172227 56 251 4.0 5.0 0.00 0.00 0.00 51 1012.7
20260503171723 55 210 7.0 9.0 0.00 0.00 0.00 49 1012.8
20260503171220 56 239 7.0 9.0 0.00 0.00 0.00 48 1012.9
20260503170717 56 201 8.0 9.0 0.00 0.00 0.00 48 1012.7
20260503170214 55 221 5.0 6.0 0.00 0.00 0.00 51 1013.0
20260503160136 54 233 6.0 7.0 0.00 0.00 0.00 48 1013.5
20260503150606 52 225 6.0 7.0 0.00 0.00 0.00 48 1013.8
20260503130955 46 232 3.0 3.0 0.00 0.00 0.00 52 1014.4
20260503130453 46 209 3.0 3.0 0.00 0.00 0.00 53 1014.6
20260503110349 33 206 0.0 1.0 0.00 0.00 0.00 87 1013.8
20260503090241 33 210 0.0 0.0 0.00 0.00 0.00 91 1013.7
20260503081209 34 210 0.0 0.0 0.00 0.00 0.00 89 1013.8
20260503080704 34 210 0.0 0.0 0.00 0.00 0.00 89 1013.9
20260503080201 34 210 0.0 0.0 0.00 0.00 0.00 88 1014.0
20260503072638 35 209 0.0 1.0 0.00 0.00 0.00 89 1014.0
20260503072135 35 209 1.0 1.0 0.00 0.00 0.00 89 1013.7
20260503071631 35 210 1.0 1.0 0.00 0.00 0.00 90 1013.7
20260503071128 35 211 0.0 0.0 0.00 0.00 0.00 90 1013.8
20260503070625 35 211 1.0 1.0 0.00 0.00 0.00 90 1013.7
20260503070124 35 211 0.0 1.0 0.00 0.00 0.00 90 1013.9